Weather History for Des Moines, IA

Change the Weather History Date:

Sunday, February 3, 2013

  Actual Average Record
Temperature  
Mean Temperature 26 °F 24 °F  
Max Temperature 34 °F 33 °F 60 °F (1928)
Min Temperature 18 °F 15 °F -26 °F (1996)
Degree Days  
Heating Degree Days 39 41  
Month to date heating degree days 135 123  
Since 1 July heating degree days 3477 3903  
Cooling Degree Days 0 0  
Month to date cooling degree days 0 0  
Year to date cooling degree days 0 0  
Moisture  
Dew Point 15 °F    
Average Humidity 63    
Maximum Humidity 78    
Minimum Humidity 47    
Precipitation  
Precipitation T in 0.04 in 0.55 in (1919)
Month to date precipitation 0.02 0.12  
Year to date precipitation 1.13 1.12  
Snow  
Snow T in 0.30 in 5.20 in (1997)
Month to date snowfall 0.5 1.0  
Since 1 July snowfall 23.5 21.4  
Snow Depth 4.00 in    
Sea Level Pressure  
Sea Level Pressure 30.06 in    
Wind  
Wind Speed 13 mph (WSW)    
Max Wind Speed 31 mph    
Max Gust Speed 38 mph    
Visibility 10 miles    
Events Snow    
T = Trace of Precipitation, MM = Missing Value Source: NWS Daily Summary

Daily Weather History Graph

Daily Weather History Graph

Search for Another Location

Airport:

Trip Planner

Search our weather history database for the weather conditions in past years. The results will help you decide how hot, cold, wet, or windy it might be!

Date:

Astronomy

Feb. 03, 2013 Rise Set
Actual Time 7:24 AM CST 5:33 PM CST
Civil Twilight 6:54 AM CST 6:02 PM CST
Nautical Twilight 6:21 AM CST 6:35 PM CST
Astronomical Twilight 5:49 AM CST 7:08 PM CST
Moon 12:52 AM CST (2/3) 11:10 AM CST (2/3)
Length of Visible Light 11h 07m
Length of Day
10h 09m
Waning Gibbous, 48% of the Moon is Illuminated
Feb 3
Waning Gibbous
Feb 10
New
Feb 17
First Quarter
Feb 25
Full
Mar 4
Last Quarter

Hourly Weather History & Observations

Time (CST) Temp. Windchill Dew Point Humidity Pressure Visibility Wind Dir Wind Speed Gust Speed Precip Events Conditions
12:34 AM 32.0 °F 19.8 °F 25.0 °F 75% 29.99 in 8.0 mi NW 20.7 mph 34.5 mph 0.00 in Snow Light Snow
12:54 AM 30.9 °F 17.8 °F 25.0 °F 79% 30.04 in 9.0 mi NW 23.0 mph 33.4 mph 0.00 in   Overcast
1:54 AM 28.0 °F 12.8 °F 21.0 °F 75% 30.07 in 6.0 mi NW 27.6 mph 34.5 mph 0.00 in Snow Light Snow
2:54 AM 26.1 °F 9.8 °F 19.0 °F 75% 30.12 in 5.0 mi NW 28.8 mph 38.0 mph 0.00 in Snow Light Snow
3:54 AM 24.1 °F 9.8 °F 16.0 °F 71% 30.13 in 8.0 mi NNW 19.6 mph 31.1 mph 0.00 in Snow Light Snow
4:54 AM 21.0 °F 4.3 °F 12.9 °F 71% 30.17 in 10.0 mi NW 24.2 mph 31.1 mph 0.00 in   Mostly Cloudy
5:14 AM 21.0 °F 5.7 °F 12.0 °F 68% 30.13 in 10.0 mi NW 19.6 mph 26.5 mph N/A   Partly Cloudy
5:54 AM 19.9 °F 6.7 °F 10.9 °F 68% 30.17 in 10.0 mi NW 13.8 mph - N/A   Clear
6:54 AM 19.0 °F 6.1 °F 10.9 °F 71% 30.19 in 10.0 mi WNW 12.7 mph - N/A   Clear
7:54 AM 18.0 °F 4.2 °F 10.9 °F 74% 30.20 in 10.0 mi WNW 13.8 mph - N/A   Clear
8:54 AM 19.9 °F 9.3 °F 10.9 °F 68% 30.21 in 10.0 mi WNW 9.2 mph - N/A   Clear
9:54 AM 21.9 °F 10.4 °F 10.9 °F 63% 30.22 in 10.0 mi WNW 11.5 mph - N/A   Partly Cloudy
10:54 AM 25.0 °F 18.1 °F 12.0 °F 58% 30.19 in 10.0 mi West 5.8 mph - N/A   Partly Cloudy
11:54 AM 26.1 °F 17.6 °F 12.9 °F 58% 30.19 in 10.0 mi SW 8.1 mph - N/A   Mostly Cloudy
12:54 PM 28.0 °F 19.3 °F 14.0 °F 56% 30.14 in 10.0 mi SW 9.2 mph - N/A   Mostly Cloudy
1:54 PM 30.9 °F 22.8 °F 16.0 °F 54% 30.09 in 10.0 mi SSW 9.2 mph - N/A   Partly Cloudy
2:54 PM 33.1 °F 24.4 °F 15.1 °F 48% 30.06 in 10.0 mi SSW 11.5 mph - N/A   Scattered Clouds
3:54 PM 34.0 °F 25.0 °F 15.1 °F 46% 30.03 in 10.0 mi SSW 12.7 mph - N/A   Mostly Cloudy
4:54 PM 32.0 °F 23.0 °F 16.0 °F 52% 30.01 in 10.0 mi South 11.5 mph - N/A   Partly Cloudy
5:54 PM 30.0 °F 24.1 °F 16.0 °F 56% 29.99 in 10.0 mi South 5.8 mph - N/A   Partly Cloudy
6:54 PM 27.0 °F 18.0 °F 15.1 °F 61% 29.98 in 10.0 mi SSE 9.2 mph - N/A   Partly Cloudy
7:54 PM 27.0 °F 17.3 °F 16.0 °F 63% 29.96 in 10.0 mi SSE 10.4 mph - N/A   Scattered Clouds
8:54 PM 26.1 °F 15.6 °F 15.1 °F 63% 29.94 in 10.0 mi SSE 11.5 mph - N/A   Mostly Cloudy
9:54 PM 26.6 °F 15.7 °F 15.8 °F 64% 29.85 in 10.0 mi South 12.7 mph - N/A   Scattered Clouds
10:54 PM 26.1 °F 16.2 °F 17.1 °F 69% 29.86 in 10.0 mi South 10.4 mph - N/A   Mostly Cloudy
11:54 PM 27.0 °F 18.0 °F 18.0 °F 69% 29.83 in 10.0 mi South 9.2 mph - N/A   Mostly Cloudy